timestamp,surface_pressure_avg,surface_temp_avg,battery_voltage,lat,long
2019-12-13 00:09:01+00:00,308.1197,5.0,12.81,47.84626,-54.09684
2019-12-13 00:19:01+00:00,319.2581,5.0,12.81,47.84626,-54.09684
2019-12-13 00:29:01+00:00,306.6714,5.0,12.81,47.84626,-54.09684
2019-12-13 00:39:01+00:00,302.8163,5.0,12.81,47.84626,-54.09684
2019-12-13 00:49:01+00:00,313.353,4.99,12.81,47.84626,-54.09684
2019-12-13 00:59:01+00:00,318.0496,5.0,12.81,47.84626,-54.09684
2019-12-13 01:09:01+00:00,304.6063,4.97,12.81,47.84626,-54.09684
2019-12-13 01:19:01+00:00,302.5146,4.91,12.81,47.84626,-54.09684
2019-12-13 01:29:01+00:00,303.1847,4.9,12.81,47.84626,-54.09684
2019-12-13 01:39:01+00:00,299.1946,4.9,12.81,47.84626,-54.09684
2019-12-13 01:49:01+00:00,291.8597,4.9,12.81,47.84626,-54.09684
2019-12-13 01:59:01+00:00,288.0947,4.9,12.81,47.84626,-54.09684
2019-12-13 02:09:01+00:00,283.4797,4.94,12.81,47.84626,-54.09684
2019-12-13 02:19:01+00:00,284.7064,5.0,12.73,47.84626,-54.09684
2019-12-13 02:29:01+00:00,280.3164,5.0,12.73,47.84626,-54.09684
2019-12-13 02:39:01+00:00,269.2514,5.0,12.73,47.84626,-54.09684
2019-12-13 02:49:01+00:00,260.2748,5.0,12.73,47.84626,-54.09684
2019-12-13 02:59:01+00:00,250.8647,5.0,12.73,47.84626,-54.09684
2019-12-13 03:09:01+00:00,235.2648,5.0,12.73,47.84626,-54.09684
2019-12-13 03:19:01+00:00,223.5231,4.98,12.73,47.84626,-54.09684
2019-12-13 03:29:01+00:00,220.6714,4.9,12.73,47.84626,-54.09684
2019-12-13 03:39:01+00:00,211.4315,4.9,12.73,47.84626,-54.09684
2019-12-13 03:49:01+00:00,201.3148,4.9,12.73,47.84626,-54.09684
2019-12-13 03:59:01+00:00,194.6848,4.9,12.73,47.84626,-54.09684
2019-12-13 04:09:01+00:00,186.7098,4.8,12.73,47.84626,-54.09684
2019-12-13 04:19:01+00:00,177.9865,4.7,12.73,47.84626,-54.09684
2019-12-13 04:29:01+00:00,174.4198,4.6,12.73,47.84626,-54.09684
2019-12-13 04:39:01+00:00,167.8131,4.58,12.73,47.84626,-54.09684
2019-12-13 04:49:01+00:00,156.9698,4.5,12.73,47.84626,-54.09684
2019-12-13 04:59:01+00:00,154.8131,4.42,12.73,47.84626,-54.09684
2019-12-13 05:09:01+00:00,155.7632,4.4,12.73,47.84626,-54.09684
2019-12-13 05:19:01+00:00,151.8098,4.3,12.73,47.84626,-54.09684
2019-12-13 05:29:01+00:00,147.4215,4.3,12.73,47.84626,-54.09684
2019-12-13 05:39:01+00:00,147.3332,4.29,12.73,47.84626,-54.09684
2019-12-13 05:49:01+00:00,148.8032,4.2,12.73,47.84626,-54.09684
2019-12-13 05:59:01+00:00,145.8582,4.2,12.73,47.84626,-54.09684
2019-12-13 06:09:01+00:00,147.8515,4.2,12.73,47.84626,-54.09684
2019-12-13 06:19:01+00:00,153.0699,4.2,12.65,47.84626,-54.09684
2019-12-13 06:29:01+00:00,149.8932,4.2,12.65,47.84626,-54.09684
2019-12-13 06:39:01+00:00,148.9265,4.19,12.65,47.84626,-54.09684
2019-12-13 06:49:01+00:00,161.5331,4.19,12.65,47.84626,-54.09684
2019-12-13 06:59:01+00:00,168.8098,4.18,12.65,47.84626,-54.09684
2019-12-13 07:09:01+00:00,161.9648,4.12,12.65,47.84626,-54.09684
2019-12-13 07:19:01+00:00,170.0265,4.1,12.65,47.84626,-54.09684
2019-12-13 07:29:01+00:00,185.4581,4.1,12.65,47.84626,-54.09684
2019-12-13 07:39:01+00:00,186.0615,4.09,12.65,47.84626,-54.09684
2019-12-13 07:49:01+00:00,187.1731,4.08,12.65,47.84626,-54.09684
2019-12-13 07:59:01+00:00,195.1498,4.07,12.65,47.84626,-54.09684
2019-12-13 08:09:01+00:00,199.6598,4.0,12.65,47.84626,-54.09684
2019-12-13 08:19:01+00:00,204.0064,3.98,12.65,47.84626,-54.09684
2019-12-13 08:29:01+00:00,212.4064,3.9,12.65,47.84626,-54.09684
2019-12-13 08:39:01+00:00,222.9448,3.8,12.65,47.84626,-54.09684
2019-12-13 08:49:01+00:00,230.7548,3.7,12.65,47.84626,-54.09684
2019-12-13 08:59:01+00:00,234.6197,3.7,12.65,47.84626,-54.09684
2019-12-13 09:09:01+00:00,241.4897,3.76,12.65,47.84626,-54.09684
2019-12-13 09:19:01+00:00,252.6165,3.89,12.65,47.84626,-54.09684
2019-12-13 09:29:01+00:00,256.7298,3.9,12.65,47.84626,-54.09684
2019-12-13 09:39:01+00:00,262.0531,4.04,12.65,47.84626,-54.09684
2019-12-13 09:49:01+00:00,271.4181,4.25,12.65,47.84626,-54.09684
2019-12-13 09:59:01+00:00,279.9647,4.2,12.65,47.84626,-54.09684
2019-12-13 10:09:01+00:00,282.673,4.1,12.65,47.84626,-54.09684
2019-12-13 10:19:01+00:00,294.6397,4.2,12.65,47.84626,-54.09684
2019-12-13 10:29:01+00:00,311.0197,4.2,12.65,47.84626,-54.09684
2019-12-13 10:39:01+00:00,320.8962,3.8,12.65,47.84626,-54.09684
2019-12-13 10:49:01+00:00,326.1396,3.6,12.65,47.84626,-54.09684
2019-12-13 10:59:01+00:00,337.7030000000001,3.6,12.65,47.84626,-54.09684
2019-12-13 11:09:01+00:00,342.5013,3.6,12.65,47.84626,-54.09684
2019-12-13 11:19:01+00:00,344.1331,3.58,12.65,47.84626,-54.09684
2019-12-13 11:29:01+00:00,344.18800000000016,3.55,12.65,47.84626,-54.09684
2019-12-13 11:39:01+00:00,354.0797,3.99,12.65,47.84626,-54.09684
2019-12-13 11:49:01+00:00,358.0762,4.3,12.65,47.84626,-54.09684
2019-12-13 11:59:01+00:00,353.4429,4.3,12.65,47.84626,-54.09684
2019-12-13 12:09:01+00:00,354.6929,4.26,12.65,47.84626,-54.09684
2019-12-13 12:19:01+00:00,365.6146,4.3,13.29,47.84626,-54.09684
2019-12-13 12:29:01+00:00,368.3196,4.34,13.29,47.84626,-54.09684
2019-12-13 12:39:01+00:00,366.5797,4.36,13.29,47.84626,-54.09684
2019-12-13 12:49:01+00:00,369.1962,4.44,13.29,47.84626,-54.09684
2019-12-13 12:59:01+00:00,368.0013,4.5,13.29,47.84626,-54.09684
2019-12-13 13:09:01+00:00,363.25800000000004,4.5,13.29,47.84626,-54.09684
2019-12-13 13:19:01+00:00,361.9329,4.5,14.64,47.84626,-54.09684
2019-12-13 13:29:01+00:00,364.6663,4.49,14.64,47.84626,-54.09684
2019-12-13 13:39:01+00:00,362.7063,4.5,14.64,47.84626,-54.09684
2019-12-13 13:49:01+00:00,359.6862,4.5,14.64,47.84626,-54.09684
2019-12-13 13:59:01+00:00,360.6263,4.5,14.64,47.84626,-54.09684
2019-12-13 14:09:01+00:00,352.9246,4.5,14.64,47.84626,-54.09684
2019-12-13 14:19:01+00:00,343.9896,4.5,14.64,47.84626,-54.09684
2019-12-13 14:29:01+00:00,339.6279,4.54,14.64,47.84626,-54.09684
2019-12-13 14:39:01+00:00,334.7596,4.58,14.64,47.84626,-54.09684
2019-12-13 14:49:01+00:00,327.1997,4.6,14.64,47.84626,-54.09684
2019-12-13 14:59:01+00:00,316.0713,4.5,14.64,47.84626,-54.09684
2019-12-13 15:09:01+00:00,306.7897,4.5,14.64,47.84626,-54.09684
2019-12-13 15:19:01+00:00,296.433,4.49,14.8,47.84626,-54.09684
2019-12-13 15:29:01+00:00,286.9047,4.4,14.8,47.84626,-54.09684
2019-12-13 15:39:01+00:00,276.6264,4.56,14.8,47.84626,-54.09684
2019-12-13 15:49:01+00:00,264.2864,4.4,14.8,47.84626,-54.09684
2019-12-13 15:59:01+00:00,251.6314,4.47,14.8,47.84626,-54.09684
2019-12-13 16:09:01+00:00,241.4014,4.48,14.8,47.84626,-54.09684
2019-12-13 16:19:01+00:00,232.9981,4.49,14.8,47.84626,-54.09684
2019-12-13 16:29:01+00:00,223.8381,4.5,14.8,47.84626,-54.09684
2019-12-13 16:39:01+00:00,213.1048,4.5,14.8,47.84626,-54.09684
2019-12-13 16:49:01+00:00,206.0081,4.5,14.8,47.84626,-54.09684
2019-12-13 16:59:01+00:00,203.7098,4.5,14.8,47.84626,-54.09684
2019-12-13 17:09:01+00:00,196.8848,4.5,14.8,47.84626,-54.09684
2019-12-13 17:19:01+00:00,192.1998,4.45,14.72,47.84626,-54.09684
2019-12-13 17:29:01+00:00,195.5865,4.4,14.72,47.84626,-54.09684
2019-12-13 17:39:01+00:00,194.8831,4.4,14.72,47.84626,-54.09684
2019-12-13 17:49:01+00:00,186.7931,4.4,14.72,47.84626,-54.09684
2019-12-13 17:59:01+00:00,183.9748,4.4,14.72,47.84626,-54.09684
2019-12-13 18:09:01+00:00,184.9298,4.4,14.72,47.84626,-54.09684
2019-12-13 18:19:01+00:00,178.2281,4.4,14.56,47.84626,-54.09684
2019-12-13 18:29:01+00:00,176.1898,4.4,14.56,47.84626,-54.09684
2019-12-13 18:39:01+00:00,183.4348,4.4,14.56,47.84626,-54.09684
2019-12-13 18:49:01+00:00,182.8898,4.4,14.56,47.84626,-54.09684
2019-12-13 18:59:01+00:00,180.1348,4.4,14.56,47.84626,-54.09684
2019-12-13 19:09:01+00:00,188.5564,4.4,14.56,47.84626,-54.09684
2019-12-13 19:19:01+00:00,195.3665,4.39,14.0,47.84626,-54.09684
2019-12-13 19:29:01+00:00,194.4148,4.37,14.0,47.84626,-54.09684
2019-12-13 19:39:01+00:00,196.6248,4.3,14.0,47.84626,-54.09684
2019-12-13 19:49:01+00:00,203.8698,4.37,14.0,47.84626,-54.09684
2019-12-13 19:59:01+00:00,206.3714,4.42,14.0,47.84626,-54.09684
2019-12-13 20:09:01+00:00,207.3247,4.5,14.0,47.84626,-54.09684
2019-12-13 20:19:01+00:00,213.6765,4.57,13.37,47.84626,-54.09684
2019-12-13 20:29:01+00:00,219.9431,4.6,13.37,47.84626,-54.09684
2019-12-13 20:39:01+00:00,223.8864,4.6,13.37,47.84626,-54.09684
2019-12-13 20:49:01+00:00,227.1931,4.5,13.37,47.84626,-54.09684
2019-12-13 20:59:01+00:00,228.8398,4.5,13.37,47.84626,-54.09684
2019-12-13 21:09:01+00:00,235.3198,4.4,13.37,47.84626,-54.09684
2019-12-13 21:19:01+00:00,246.5931,4.3,13.05,47.84626,-54.09684
2019-12-13 21:29:01+00:00,252.4164,4.23,13.05,47.84626,-54.09684
2019-12-13 21:39:01+00:00,254.6948,4.2,13.05,47.84626,-54.09684
2019-12-13 21:49:01+00:00,260.1598,4.1,13.05,47.84626,-54.09684
2019-12-13 21:59:01+00:00,269.8565,4.1,13.05,47.84626,-54.09684
2019-12-13 22:09:01+00:00,276.1864,3.9,13.05,47.84626,-54.09684
2019-12-13 22:19:01+00:00,280.3181,3.75,12.81,47.84626,-54.09684
2019-12-13 22:29:01+00:00,288.4747,3.7,12.81,47.84626,-54.09684
2019-12-13 22:39:01+00:00,300.7713,3.6,12.81,47.84626,-54.09684
2019-12-13 22:49:01+00:00,308.9163,3.64,12.81,47.84626,-54.09684
2019-12-13 22:59:01+00:00,313.173,3.66,12.81,47.84626,-54.09684
2019-12-13 23:09:01+00:00,318.718,3.7,12.81,47.84626,-54.09684
2019-12-13 23:19:01+00:00,325.1797,3.8,12.73,47.84626,-54.09684
2019-12-13 23:29:01+00:00,327.6930000000001,3.93,12.73,47.84626,-54.09684
2019-12-13 23:39:01+00:00,328.3929,4.2,12.73,47.84626,-54.09684
2019-12-13 23:49:01+00:00,331.458,4.26,12.73,47.84626,-54.09684
2019-12-13 23:59:01+00:00,333.6646,4.3,12.73,47.84626,-54.09684
